[[{"header":{"parameterUnit":"m.s-1","parameterCategory":1,"la1":30.2991,"la2":30.254,"lo1":-89.0895,"lo2":-89.0444,"dy":0.0017,"dx":0.0017,"nx":28,"ny":28,"refTime":"2024-12-22T03:00:00:Z","depth":0,"parameterNumber":2,"parameterNumberName":"U-component_of_WINDS"},"data":[0,0,0,0,0,0,0,0,0,0,0,0,0,0,0,0,0,0,0,0,0,0,0,0,0,0,0,0,0,0,0,0,0,0,0,0,0,0,0,0,0,0,0,0,0,0,0,0,0,0,0,0,0,0,0,0,0,0,-1.5684,-1.5683,0,-1.5667,-1.5667,-1.5667,-1.5608,-1.5607,-1.5605,-1.5604,-1.5589,-1.559,-1.5591,0,0,0,0,0,0,0,0,0,0,0,0,0,-1.5666,-1.5667,-1.5684,-1.5683,-1.5683,-1.5667,-1.5667,-1.5667,-1.5608,-1.5607,-1.5605,-1.5603,-1.5589,-1.559,-1.5591,0,0,0,0,0,0,0,0,0,0,0,0,0,-1.5664,-1.5667,-1.5684,-1.5652,-1.5649,-1.5667,-1.5667,-1.5667,-1.5609,-1.5606,-1.5604,-1.5603,-1.5588,-1.559,-1.5591,-1.5639,0,0,-1.5595,-1.5595,0,0,0,0,0,0,0,0,-1.5664,-1.5665,-1.5657,-1.5654,-1.5651,-1.5637,-1.5655,-1.5657,-1.5609,-1.5624,-1.5604,-1.5602,-1.5607,-1.5606,-1.5608,-1.5638,-1.5637,-1.5595,-1.5596,-1.5596,-1.5596,0,0,0,0,0,0,0,-1.5665,-1.5665,-1.5677,-1.5657,-1.5653,-1.5639,-1.5637,-1.5655,-1.5627,-1.5622,-1.5618,-1.5617,-1.5605,-1.5607,-1.5607,-1.5637,-1.5595,-1.5596,-1.5597,-1.5597,-1.5707,-1.5709,0,0,0,0,0,0,-1.5669,-1.5666,-1.5678,-1.5677,-1.5653,-1.5641,-1.5638,-1.5644,-1.5626,-1.5622,-1.5619,-1.5614,-1.5606,-1.5606,-1.5606,-1.5662,-1.5596,-1.5597,-1.5598,-1.5705,-1.5708,-1.571,0,0,0,0,0,0,-1.5669,-1.5671,-1.5678,-1.567,-1.567,-1.5644,-1.565,-1.5645,-1.5646,-1.5624,-1.5618,-1.5626,-1.5604,-1.5604,-1.5631,-1.5661,-1.5598,-1.5599,-1.5702,-1.5706,-1.5709,-1.5775,0,0,0,0,0,0,-1.5668,-1.5671,-1.5688,-1.5671,-1.5671,-1.5703,-1.5652,-1.5646,-1.5649,-1.5643,-1.5629,-1.5625,-1.5602,-1.563,-1.5633,-1.5662,-1.56,-1.57,-1.5704,-1.5708,-1.577,-1.578,-1.5788,0,0,0,0,0,-1.5668,-1.5708,-1.569,-1.5691,-1.5692,-1.5705,-1.5705,-1.5678,-1.5651,-1.5669,-1.5654,-1.5625,-1.5657,-1.5633,-1.5636,-1.5666,-1.5698,-1.5703,-1.5707,-1.5766,-1.5778,-1.5788,0,0,0,0,0,0,-1.573,-1.5705,-1.5684,-1.5719,-1.5715,-1.5695,-1.5717,-1.5692,-1.5695,-1.5689,-1.5656,-1.5654,-1.5686,-1.5678,-1.5652,-1.5712,-1.5672,-1.5678,-1.5716,-1.5727,-1.5736,-1.5739,-1.5601,0,0,0,0,0,-1.5748,-1.576,-1.5737,-1.5771,-1.5769,-1.5744,-1.5748,-1.5728,-1.5722,-1.572,-1.5707,-1.5703,-1.5712,-1.5719,-1.5726,-1.5768,-1.5765,-1.579,-1.5799,-1.5807,-1.5813,-1.5836,-1.5847,-1.5726,-1.5726,-1.5726,0,0,-1.5785,-1.5772,-1.5782,-1.5783,-1.5777,-1.5791,-1.5742,-1.5759,-1.577,-1.5722,-1.5747,-1.5738,-1.5731,-1.5766,-1.5781,-1.5761,-1.5845,-1.5813,-1.5819,-1.5821,-1.5842,-1.5854,-1.5864,-1.5729,-1.5729,-1.5728,0,0,-1.586,-1.5851,-1.5878,-1.5873,-1.5864,-1.5847,-1.5854,-1.5838,-1.583,-1.5854,-1.5819,-1.5831,-1.5847,-1.5844,-1.5845,-1.5918,-1.5892,-1.5922,-1.5971,-1.5994,-1.6004,-1.6012,-1.604,-1.605,-1.5927,-1.5927,-1.5927,0,-1.5907,-1.5926,-1.5895,-1.5915,-1.5917,-1.5874,-1.5902,-1.5898,-1.5893,-1.5896,-1.5872,-1.5892,-1.5885,-1.5919,-1.5937,-1.5938,-1.5946,-1.5924,-1.6004,-1.6013,-1.602,-1.6047,-1.6057,-1.5931,-1.5931,-1.593,-1.593,0,-1.5986,-1.6,-1.6023,-1.6019,-1.6023,-1.6047,-1.602,-1.6028,-1.6007,-1.5992,-1.6018,-1.6007,-1.6012,-1.6018,-1.5998,-1.605,-1.6038,-1.601,-1.5971,-1.6036,-1.606,-1.607,-1.5936,-1.5935,-1.5934,-1.5933,0,0,-1.6101,-1.6078,-1.6088,-1.6086,-1.6073,-1.6084,-1.6106,-1.611,-1.6118,-1.6115,-1.6134,-1.6148,-1.6123,-1.6124,-1.6102,-1.6122,-1.6184,-1.6092,-1.6092,-1.6111,-1.6243,-1.6265,-1.6278,-1.6165,-1.6167,-1.6169,-1.6244,0,-1.6173,-1.621,-1.6182,-1.6224,-1.6237,-1.6196,-1.6216,-1.6211,-1.6197,-1.6207,-1.6192,-1.6204,-1.6169,-1.6169,-1.6187,-1.6173,-1.621,-1.6166,-1.6184,-1.6185,-1.6189,-1.629,-1.6314,-1.6385,-1.6253,-1.6255,-1.6256,0,-1.6263,-1.6265,-1.6308,-1.6293,-1.6298,-1.6315,-1.6318,-1.6327,-1.632,-1.6309,-1.6311,-1.6284,-1.6306,-1.6265,-1.6295,-1.6266,-1.6271,-1.6266,-1.6268,-1.627,-1.6226,-1.6297,-1.6407,-1.6419,-1.627,-1.6269,-1.6268,0,-1.6346,-1.6358,-1.6385,-1.6385,-1.6367,-1.6381,-1.6375,-1.6366,-1.6371,-1.6372,-1.6375,-1.6379,-1.6382,-1.6387,-1.6363,-1.6335,-1.6397,-1.6354,-1.639,-1.6391,-1.6406,-1.6406,-1.6521,-1.6406,-1.6406,-1.6406,-1.6406,0,-1.6431,-1.6459,-1.6422,-1.644,-1.647,-1.6439,-1.647,-1.6459,-1.6452,-1.6467,-1.6431,-1.6446,-1.6413,-1.6425,-1.6406,-1.6435,-1.6436,-1.6428,-1.6424,-1.6433,-1.6434,-1.6438,-1.6433,-1.6409,-1.6408,-1.6407,-1.6407,0,-1.6529,-1.6505,-1.6533,-1.6514,-1.651,-1.6534,-1.6518,-1.6534,-1.6517,-1.6537,-1.654,-1.6515,-1.6527,-1.6503,-1.6512,-1.6499,-1.6541,-1.6527,-1.6543,-1.654,-1.6578,-1.6576,-1.6701,-1.6717,-1.659,-1.6591,-1.6592,0,-1.6586,-1.6607,-1.659,-1.6598,-1.6593,-1.6605,-1.661,-1.6579,-1.6585,-1.658,-1.6596,-1.6605,-1.6611,-1.6633,-1.6616,-1.6623,-1.661,-1.6654,-1.6611,-1.6621,-1.6614,-1.6614,-1.6616,-1.6663,-1.6665,-1.6666,-1.6667,0,-1.6691,-1.6678,-1.6685,-1.6689,-1.6695,-1.6697,-1.6696,-1.6704,-1.6671,-1.668,-1.6692,-1.6696,-1.6705,-1.6715,-1.6718,-1.6712,-1.6686,-1.668,-1.6689,-1.6701,-1.671,-1.6708,-1.657,-1.6678,-1.6677,-1.6676,-1.6676,-1.6675,-1.6771,-1.6789,-1.678,-1.679,-1.6785,-1.6785,-1.68,-1.6785,-1.6794,-1.6799,-1.678,-1.6797,-1.679,-1.6791,-1.6788,-1.6801,-1.6782,-1.6795,-1.6798,-1.6803,-1.681,-1.6706,-1.6801,-1.6801,-1.6801,-1.68,-1.68,0,-1.6876,-1.6868,-1.6878,-1.6877,-1.6885,-1.6857,-1.6855,-1.6864,-1.6879,-1.6874,-1.6881,-1.6895,-1.6904,-1.6888,-1.6896,-1.6909,-1.6897,-1.6912,-1.6912,-1.6912,-1.6825,-1.6818,-1.6922,-1.6922,-1.6922,-1.6922,-1.6922,-1.6922,-1.6932,-1.696,-1.6946,-1.6972,-1.6964,-1.698,-1.6981,-1.6981,-1.6978,-1.6995,-1.7003,-1.6992,-1.6983,-1.699,-1.6998,-1.6993,-1.6998,-1.7018,-1.7009,-1.693,-1.6918,-1.6906,-1.6899,-1.7019,-1.7019,-1.7095,-1.7096,-1.7096]},{"header":{"parameterUnit":"m.s-1","parameterCategory":1,"la1":30.2991,"la2":30.254,"lo1":-89.0895,"lo2":-89.0444,"dy":0.0017,"dx":0.0017,"nx":28,"ny":28,"refTime":"2024-12-22T03:00:00:Z","depth":0,"parameterNumber":3,"parameterNumberName":"V-component_of_WINDS"},"data":[0,0,0,0,0,0,0,0,0,0,0,0,0,0,0,0,0,0,0,0,0,0,0,0,0,0,0,0,0,0,0,0,0,0,0,0,0,0,0,0,0,0,0,0,0,0,0,0,0,0,0,0,0,0,0,0,0,0,-2.3721,-2.3722,0,-2.3749,-2.3749,-2.3749,-2.3725,-2.3724,-2.3723,-2.3722,-2.3748,-2.375,-2.3752,0,0,0,0,0,0,0,0,0,0,0,0,0,-2.3647,-2.3648,-2.3721,-2.3722,-2.3722,-2.3749,-2.3749,-2.3749,-2.3725,-2.3724,-2.3723,-2.3722,-2.3748,-2.375,-2.3752,0,0,0,0,0,0,0,0,0,0,0,0,0,-2.3677,-2.3649,-2.3721,-2.3713,-2.3713,-2.3749,-2.3749,-2.3749,-2.3726,-2.3724,-2.3723,-2.3721,-2.3747,-2.375,-2.3752,-2.3796,0,0,-2.3759,-2.376,0,0,0,0,0,0,0,0,-2.3675,-2.368,-2.3714,-2.3714,-2.3714,-2.3732,-2.3732,-2.3765,-2.3726,-2.3721,-2.3722,-2.3721,-2.3744,-2.3747,-2.3755,-2.3798,-2.3799,-2.376,-2.3761,-2.3762,-2.3763,0,0,0,0,0,0,0,-2.3673,-2.3678,-2.3732,-2.3715,-2.3714,-2.3708,-2.371,-2.3738,-2.374,-2.3721,-2.3719,-2.3723,-2.3744,-2.3753,-2.3755,-2.3799,-2.3759,-2.3762,-2.3763,-2.3764,-2.388,-2.3882,0,0,0,0,0,0,-2.3672,-2.3677,-2.3731,-2.3733,-2.369,-2.371,-2.3713,-2.3728,-2.374,-2.374,-2.3724,-2.3722,-2.3749,-2.3753,-2.3756,-2.381,-2.3762,-2.3764,-2.3766,-2.3878,-2.388,-2.3882,0,0,0,0,0,0,-2.3671,-2.3677,-2.373,-2.3704,-2.3711,-2.3713,-2.3729,-2.3729,-2.3738,-2.3742,-2.3742,-2.3733,-2.3748,-2.3753,-2.3787,-2.381,-2.3765,-2.3768,-2.3876,-2.3879,-2.3881,-2.3917,0,0,0,0,0,0,-2.3669,-2.3677,-2.3694,-2.3705,-2.3712,-2.3761,-2.3731,-2.373,-2.3742,-2.374,-2.3751,-2.3751,-2.3747,-2.3783,-2.3789,-2.3813,-2.3769,-2.3874,-2.3878,-2.388,-2.3914,-2.392,-2.3926,0,0,0,0,0,-2.3666,-2.3703,-2.3695,-2.3702,-2.3734,-2.3762,-2.3766,-2.3762,-2.3744,-2.3762,-2.3764,-2.3751,-2.3806,-2.3787,-2.3793,-2.3818,-2.3873,-2.3877,-2.388,-2.3911,-2.3919,-2.3926,0,0,0,0,0,0,-2.3694,-2.3704,-2.3696,-2.3737,-2.3749,-2.3758,-2.378,-2.377,-2.3787,-2.3783,-2.3776,-2.3779,-2.3815,-2.382,-2.3798,-2.3862,-2.3837,-2.3842,-2.3858,-2.3866,-2.3872,-2.387,-2.3771,0,0,0,0,0,-2.3705,-2.3727,-2.3735,-2.377,-2.3777,-2.3778,-2.379,-2.3785,-2.3797,-2.3802,-2.3807,-2.3819,-2.3839,-2.3852,-2.3871,-2.3914,-2.3916,-2.3934,-2.394,-2.3945,-2.395,-2.3974,-2.3982,-2.3894,-2.3894,-2.3894,0,0,-2.3727,-2.3736,-2.375,-2.3776,-2.3785,-2.3809,-2.3782,-2.3808,-2.3825,-2.3805,-2.3839,-2.3843,-2.3855,-2.3894,-2.3911,-2.3899,-2.3974,-2.395,-2.3954,-2.3956,-2.3978,-2.3987,-2.3994,-2.3897,-2.3896,-2.3896,0,0,-2.3781,-2.379,-2.3821,-2.383,-2.3844,-2.3845,-2.3852,-2.3863,-2.3865,-2.3898,-2.3884,-2.3904,-2.3939,-2.3949,-2.3958,-2.4016,-2.4004,-2.4022,-2.4054,-2.4078,-2.4085,-2.4091,-2.4112,-2.412,-2.4026,-2.4026,-2.4027,0,-2.3808,-2.3844,-2.3838,-2.3865,-2.3877,-2.3861,-2.3892,-2.3902,-2.3921,-2.3929,-2.3915,-2.3958,-2.3965,-2.4007,-2.4021,-2.4029,-2.4037,-2.4021,-2.4084,-2.409,-2.4096,-2.4116,-2.4125,-2.4029,-2.4028,-2.4028,-2.4028,0,-2.3876,-2.3901,-2.3924,-2.3944,-2.3958,-2.3988,-2.3986,-2.4001,-2.3995,-2.3996,-2.403,-2.4038,-2.4059,-2.4068,-2.4062,-2.4109,-2.4101,-2.4085,-2.406,-2.4107,-2.4126,-2.4134,-2.4032,-2.4031,-2.403,-2.403,0,0,-2.3949,-2.3966,-2.3974,-2.3984,-2.3998,-2.4017,-2.4045,-2.4066,-2.4079,-2.4092,-2.4116,-2.4146,-2.4132,-2.4143,-2.4138,-2.4158,-2.4204,-2.414,-2.414,-2.4153,-2.4258,-2.427,-2.4279,-2.4196,-2.4198,-2.4199,-2.4257,0,-2.4004,-2.4055,-2.4051,-2.4098,-2.4121,-2.4106,-2.4131,-2.4142,-2.4144,-2.4163,-2.4165,-2.4187,-2.4166,-2.4173,-2.4192,-2.4195,-2.4226,-2.419,-2.4219,-2.422,-2.4218,-2.4289,-2.4302,-2.4357,-2.4264,-2.4266,-2.4267,0,-2.4076,-2.4094,-2.4144,-2.4155,-2.4165,-2.4187,-2.4206,-2.4225,-2.4237,-2.4237,-2.4249,-2.4241,-2.4269,-2.4242,-2.4281,-2.4257,-2.4268,-2.4271,-2.4273,-2.4277,-2.4247,-2.4296,-2.4374,-2.4383,-2.4278,-2.4277,-2.4276,0,-2.4126,-2.4162,-2.4197,-2.4205,-2.4219,-2.4235,-2.4241,-2.4252,-2.4265,-2.4281,-2.4289,-2.4308,-2.4318,-2.4333,-2.4329,-2.431,-2.437,-2.4342,-2.4371,-2.4371,-2.4385,-2.4384,-2.4468,-2.439,-2.439,-2.439,-2.4389,0,-2.419,-2.4221,-2.4219,-2.4241,-2.4276,-2.427,-2.4305,-2.4309,-2.4319,-2.4341,-2.4327,-2.4348,-2.4342,-2.4362,-2.4359,-2.4392,-2.4396,-2.4397,-2.4397,-2.4399,-2.44,-2.4408,-2.4404,-2.4392,-2.4391,-2.4391,-2.439,0,-2.4252,-2.4252,-2.4289,-2.4299,-2.4303,-2.4328,-2.4336,-2.4357,-2.4357,-2.4385,-2.4391,-2.4393,-2.4416,-2.4413,-2.4439,-2.4437,-2.4478,-2.4472,-2.4475,-2.4474,-2.4503,-2.4501,-2.4596,-2.4608,-2.4521,-2.4522,-2.4522,0,-2.4293,-2.4317,-2.433,-2.4345,-2.4353,-2.4375,-2.4389,-2.4384,-2.4398,-2.4414,-2.4432,-2.4454,-2.4472,-2.4509,-2.4512,-2.4532,-2.4527,-2.4558,-2.453,-2.4532,-2.4529,-2.4528,-2.4531,-2.4565,-2.4566,-2.4566,-2.4567,0,-2.4367,-2.4366,-2.4386,-2.4407,-2.4423,-2.4439,-2.4453,-2.4465,-2.4461,-2.4478,-2.4502,-2.4516,-2.4542,-2.4565,-2.4583,-2.4589,-2.4578,-2.4576,-2.4584,-2.4588,-2.4589,-2.459,-2.4492,-2.4574,-2.4573,-2.4573,-2.4573,-2.4572,-2.4421,-2.4442,-2.4455,-2.4478,-2.4488,-2.4502,-2.4522,-2.4525,-2.4546,-2.4568,-2.4563,-2.459,-2.4601,-2.4626,-2.4633,-2.4654,-2.4643,-2.4654,-2.4657,-2.466,-2.4664,-2.4585,-2.4657,-2.4657,-2.4657,-2.4657,-2.4656,0,-2.4495,-2.4503,-2.4524,-2.4545,-2.4563,-2.4551,-2.4566,-2.4582,-2.4607,-2.4618,-2.4636,-2.4664,-2.4686,-2.469,-2.4711,-2.4727,-2.4722,-2.4732,-2.4732,-2.4733,-2.4672,-2.4664,-2.4736,-2.4736,-2.4736,-2.4736,-2.4736,-2.4736,-2.4536,-2.4572,-2.4572,-2.4612,-2.4619,-2.4647,-2.4657,-2.4669,-2.4679,-2.4711,-2.4729,-2.4732,-2.4741,-2.4762,-2.4781,-2.4782,-2.4791,-2.4803,-2.4802,-2.4745,-2.4738,-2.473,-2.4722,-2.4805,-2.4805,-2.4862,-2.4862,-2.4863]}]]